ECMWFFLT1_700_spd_057.txt.gz
Wind_Speed
7 5 3 2 2 2 3 3 4 3 3 3 3 3 3 2 2 1 1 1 1 1 1 2 2 1 2 3 3 4 4 4 4 4 4 5 6 5 5 8 8 7 6 5 5 5 6 7 7 6 7 6 6 7 8 8 8 9 10 9 9 8 6
7 5 3 1 1 2 3 3 4 3 3 3 3 3 3 2 2 2 2 2 2 1 2 2 2 1 2 2 3 3 3 3 4 5 5 5 6 5 5 6 6 5 5 4 5 5 5 5 5 6 7 6 5 6 7 7 7 7 7 7 6 5 5
7 5 3 1 0 1 2 3 4 4 4 3 3 3 2 2 2 3 2 2 2 2 2 3 3 3 3 3 3 3 3 3 3 5 6 5 6 6 5 4 4 3 3 3 2 2 2 2 2 2 3 3 3 4 5 5 5 6 6 5 5 4 4
7 6 4 3 1 1 2 3 3 4 4 4 3 2 2 2 2 3 3 3 3 2 2 3 3 3 3 3 3 3 3 3 3 4 5 5 5 5 5 5 4 4 4 3 2 1 0 1 1 1 2 3 3 2 3 3 3 5 5 4 4 4 4
9 7 6 4 2 2 2 3 4 4 5 4 3 2 1 2 2 3 4 4 4 3 3 3 3 3 3 3 3 3 3 3 3 3 3 3 3 4 4 4 4 5 5 4 3 2 2 1 1 2 2 2 2 2 3 2 2 3 4 4 4 4 5
11 9 7 5 4 3 3 4 4 4 5 5 4 2 1 1 2 3 4 4 4 4 4 4 3 3 3 3 3 3 3 3 3 3 3 3 3 3 3 3 4 4 3 3 4 3 2 2 1 1 1 2 3 4 4 3 3 4 4 5 5 5 6
12 10 7 6 5 4 3 4 4 5 5 5 4 3 1 1 2 2 3 3 4 4 4 4 4 4 4 3 3 3 3 3 3 3 3 3 3 2 3 3 3 3 2 3 3 3 3 2 1 1 1 1 1 2 2 2 2 3 3 3 4 4 5
14 11 8 7 6 4 4 4 4 5 5 6 5 3 2 1 1 1 3 3 4 4 4 4 5 5 5 4 4 4 3 3 2 2 2 2 3 3 3 3 3 3 2 2 3 3 4 3 1 1 3 4 4 3 2 2 3 3 3 3 3 4 4
14 12 9 8 7 5 4 4 4 5 6 7 5 3 1 1 1 2 3 4 4 4 5 5 5 6 6 5 5 4 4 3 3 3 3 2 2 2 2 3 3 3 3 3 3 3 3 3 2 2 4 4 2 4 3 3 4 4 4 4 4 4 4
16 14 11 9 8 7 6 5 5 6 6 7 5 2 1 1 2 3 3 4 4 4 5 5 6 6 6 6 5 5 4 4 3 3 3 3 3 3 2 2 2 2 2 2 2 2 3 3 3 3 2 5 3 3 4 5 5 4 4 4 4 4 4
19 16 12 10 10 9 8 7 7 7 7 6 5 2 0 1 1 2 3 4 4 4 5 5 5 5 5 5 5 5 5 5 4 4 3 3 2 2 2 2 2 2 2 2 1 1 2 2 3 3 2 4 6 4 2 5 5 3 4 4 4 3 3
22 19 15 12 11 11 10 9 8 9 9 7 6 4 2 1 1 1 2 2 3 3 3 3 3 3 3 4 4 4 4 4 4 4 4 3 3 2 2 2 1 2 1 1 1 1 1 1 1 2 1 1 1 2 2 3 4 4 4 5 4 4 3
25 20 17 14 12 12 11 10 10 10 10 9 8 7 5 3 2 1 1 1 2 2 2 3 3 3 3 3 3 3 3 3 2 2 2 2 3 3 2 2 2 1 1 1 1 1 1 1 1 1 1 1 1 1 2 3 4 4 5 5 4 4 4
25 22 19 16 14 14 13 12 12 12 12 12 11 10 8 6 5 4 3 2 1 0 1 2 3 4 4 3 3 2 1 1 1 1 1 1 1 1 1 1 1 1 1 1 0 1 0 0 1 1 1 1 1 1 3 4 4 5 5 6 6 6 6
25 24 21 18 16 15 15 14 14 14 14 14 13 12 10 9 8 7 6 5 4 2 1 3 4 5 5 5 4 3 3 2 2 2 2 2 2 2 2 2 2 2 1 1 1 1 1 1 2 2 2 2 3 3 4 6 6 6 7 7 7 8 8
25 25 21 18 17 17 17 16 16 16 16 16 15 14 13 13 11 10 9 8 7 6 5 4 5 6 6 6 7 7 6 6 5 5 5 5 4 4 4 4 3 4 4 4 4 5 5 5 6 6 7 7 7 7 7 7 8 9 9 9 10 10 10
25 25 23 21 20 19 19 18 18 19 19 18 17 16 16 15 13 13 13 12 11 9 8 8 8 8 8 8 9 9 9 10 9 8 8 7 7 7 7 6 6 6 6 6 6 6 7 7 8 8 9 9 9 9 9 10 9 9 11 12 11 12 14
23 26 26 25 23 21 21 21 21 22 22 20 19 19 18 17 16 15 15 15 14 13 12 12 11 11 10 10 11 11 11 12 11 11 10 9 9 9 9 10 10 9 9 8 8 8 8 8 9 9 9 10 10 10 10 10 10 9 11 12 13 14 16
23 26 26 23 22 21 22 24 24 24 23 22 21 20 20 19 18 17 17 16 16 16 16 15 14 13 13 13 13 13 14 13 12 12 12 11 10 11 11 12 12 11 11 10 10 10 10 10 11 11 11 11 12 12 10 10 12 12 12 13 14 15 16
24 23 21 19 19 20 21 23 23 23 23 23 23 22 22 21 20 20 20 18 17 18 19 18 16 14 14 15 15 15 15 14 13 12 12 12 12 11 11 11 11 11 11 12 12 13 12 12 12 13 13 12 13 14 14 13 14 14 13 13 14 15 17
21 17 15 16 17 17 19 20 21 22 23 23 23 23 23 23 23 23 22 18 18 20 20 19 18 15 14 16 17 17 16 15 14 13 11 11 10 9 8 8 9 9 9 10 11 12 12 12 13 14 14 14 15 16 17 16 16 16 16 14 12 14 16
13 11 13 15 17 17 18 19 20 21 22 23 23 24 23 24 26 26 23 21 21 22 20 19 17 15 15 17 19 20 18 15 13 12 10 8 7 6 6 6 7 7 7 8 9 10 11 12 13 14 14 14 15 16 17 17 17 19 19 15 13 15 18
9 11 14 16 17 19 20 20 21 21 21 23 24 25 25 25 27 26 23 23 23 21 19 17 16 16 18 20 22 20 15 10 9 8 7 6 5 4 5 6 7 8 9 10 11 12 13 14 14 15 15 15 16 16 17 17 18 19 19 18 19 21 22
15 18 19 19 19 19 19 19 19 20 22 24 25 26 26 25 25 25 23 23 23 21 18 16 16 17 18 20 21 18 13 8 7 6 6 6 7 7 8 10 10 10 11 12 13 14 15 15 16 16 16 17 18 18 19 20 21 21 21 21 23 24 24
21 23 24 24 23 21 19 18 18 19 21 23 24 26 26 25 26 26 26 25 23 18 15 15 17 17 17 17 17 16 13 11 10 9 9 9 9 10 11 12 12 12 12 14 15 16 16 16 17 18 18 18 18 19 20 21 21 23 23 23 23 25 26
23 23 22 22 21 20 17 16 17 18 20 22 24 26 26 26 26 27 26 26 23 17 14 15 16 15 14 13 12 12 12 12 11 11 11 11 11 12 13 13 14 14 15 17 17 17 17 18 19 19 19 19 19 19 20 21 21 22 24 25 24 25 27
22 22 20 18 17 16 16 15 16 17 18 20 22 23 23 24 24 24 24 23 19 14 12 12 12 11 11 10 11 11 11 11 11 11 12 12 13 13 14 15 16 16 17 17 18 19 19 19 20 20 20 19 19 19 20 21 21 22 23 25 25 25 26
21 20 19 19 18 17 16 16 17 18 18 18 19 19 20 21 21 22 23 19 12 9 10 10 10 10 10 10 11 11 11 11 12 12 13 14 14 14 15 16 16 17 16 16 17 18 19 19 20 20 21 20 20 21 21 21 22 22 23 24 25 25 26
21 20 20 19 19 17 17 17 18 19 19 19 19 19 19 20 19 19 19 17 13 11 11 11 10 10 10 10 12 12 13 13 14 14 15 16 16 16 16 16 17 17 16 17 17 18 19 20 21 21 21 21 21 21 22 22 22 23 23 24 25 26 27
20 21 20 20 19 17 16 17 17 18 18 18 18 18 18 19 19 17 18 18 16 15 14 12 12 12 12 12 13 13 13 15 15 16 17 18 18 18 17 18 18 17 17 17 18 18 19 20 22 22 21 21 22 22 22 23 23 24 24 25 27 28 28
19 19 18 19 18 17 16 16 17 17 18 18 18 18 18 19 19 19 19 19 18 17 16 14 14 14 14 14 14 14 14 15 16 17 19 21 20 19 20 20 20 19 19 19 19 20 20 21 23 25 24 23 24 24 24 23 24 26 27 27 29 30 30
20 18 17 18 19 19 19 20 19 19 19 19 19 19 20 21 21 21 21 21 20 19 18 17 17 16 16 16 16 15 14 16 17 18 21 23 22 21 21 21 21 21 21 21 22 21 21 22 24 25 26 26 27 28 27 26 26 28 30 30 31 32 33
21 21 20 21 21 21 22 23 22 22 21 20 19 19 18 19 21 23 23 22 22 21 20 19 19 18 18 18 18 18 16 17 19 20 21 25 26 25 25 24 23 23 23 24 24 23 22 23 24 25 26 27 28 30 31 30 29 30 32 33 34 35 35
24 23 23 24 24 23 24 25 25 25 23 22 21 21 20 20 23 25 24 23 23 22 21 21 20 20 21 21 21 22 20 20 21 21 23 26 25 27 31 31 27 25 26 26 26 25 25 25 25 26 27 28 29 30 32 33 33 33 33 34 35 36 37
26 25 25 26 26 25 25 26 26 26 25 24 25 26 26 26 26 26 26 25 25 25 24 24 24 24 25 24 24 24 23 22 22 22 24 24 21 25 33 34 28 27 27 27 27 27 27 27 27 28 28 29 31 32 33 35 36 35 35 35 35 36 36
27 27 26 27 27 26 26 26 26 26 25 25 26 27 28 28 29 31 31 31 31 31 30 29 28 26 26 25 25 25 24 23 22 22 22 22 21 26 32 30 27 27 27 27 28 28 28 28 29 29 30 31 32 33 34 35 36 36 36 35 35 35 35
28 28 28 28 28 27 26 25 25 26 26 27 27 28 28 29 29 31 33 33 33 33 32 30 29 28 28 28 27 27 26 25 24 23 23 22 23 28 31 29 28 30 29 29 30 30 30 31 31 31 32 33 33 34 35 35 36 35 35 35 35 34 34

ECMWFFLT1_700_spd_060.txt.gz
Wind_Speed
9 8 6 5 4 5 5 5 6 6 6 6 6 5 5 4 3 2 2 1 1 2 4 5 4 4 4 5 6 7 8 7 7 9 6 5 5 4 3 4 4 4 4 4 3 3 3 3 2 2 2 1 1 1 0 1 2 2 2 2 1 1 1
10 8 6 5 4 4 5 6 6 6 6 6 6 6 5 4 3 2 2 1 1 2 3 4 4 4 5 5 6 7 9 9 8 8 7 5 5 5 5 5 4 4 4 3 3 3 3 2 2 3 2 1 1 1 1 1 0 1 2 4 3 1 1
10 8 7 5 4 4 5 5 6 7 7 8 7 6 5 4 3 2 2 2 2 2 2 3 3 3 3 3 4 5 7 7 7 8 8 6 6 6 5 4 4 4 4 2 2 3 3 4 5 5 5 4 3 2 2 1 1 1 1 2 3 3 2
11 8 7 5 4 4 4 4 5 6 7 8 8 7 6 5 4 3 2 2 2 2 2 2 2 2 2 2 3 3 4 5 5 6 7 6 5 5 4 4 4 4 4 2 2 3 4 5 6 7 6 6 4 4 4 3 1 2 2 1 2 3 3
12 9 8 6 5 3 3 3 4 5 6 7 7 7 6 5 4 3 3 3 3 3 3 2 2 1 1 2 2 2 3 4 4 4 5 5 5 4 4 4 4 5 4 3 2 3 4 4 4 5 6 6 5 4 4 4 2 1 1 2 1 2 3
16 14 11 8 5 3 2 2 4 5 5 6 7 6 5 4 3 3 3 4 4 4 4 4 3 2 2 1 1 1 2 2 3 3 3 4 4 4 4 4 4 4 4 5 5 4 3 2 3 5 6 5 4 4 4 5 3 1 1 0 1 2 2
18 17 13 9 6 4 2 0 3 4 5 5 5 5 4 3 2 3 3 4 5 5 5 5 5 5 4 3 2 2 1 1 2 2 2 2 3 3 3 4 4 4 4 5 6 6 5 3 4 5 6 7 7 6 5 4 3 2 2 1 1 0 0
19 17 14 10 8 5 3 2 2 3 4 5 5 4 3 1 1 2 3 5 6 6 6 6 6 6 6 5 4 4 3 2 2 2 1 1 2 2 2 3 4 4 5 5 5 5 6 6 7 8 9 9 9 6 2 3 2 2 2 2 2 2 2
20 18 15 12 9 7 5 4 3 3 5 5 4 3 2 1 0 2 3 5 6 7 7 7 7 7 7 6 6 5 5 4 4 4 3 3 2 2 2 2 3 3 4 4 3 3 5 9 13 14 10 6 7 4 4 5 3 4 4 3 3 3 3
22 19 16 13 10 9 7 6 4 3 4 5 3 2 2 1 1 2 3 4 6 6 7 7 7 7 7 7 6 6 6 5 5 5 5 4 4 4 4 3 3 3 3 4 4 4 4 7 10 13 11 9 7 3 2 2 2 4 4 4 4 3 3
23 19 16 14 11 10 9 8 6 4 4 4 3 2 2 2 1 1 2 3 4 5 6 6 6 6 6 6 6 5 5 6 5 5 5 5 5 5 5 5 4 5 5 5 5 5 4 5 6 8 11 11 7 3 3 3 3 2 2 2 3 3 2
24 20 17 14 13 11 11 9 7 5 4 4 3 3 3 2 2 1 1 1 2 3 4 4 4 4 4 4 4 4 4 5 5 5 5 5 5 5 5 5 5 5 5 5 5 5 5 5 5 7 10 12 8 5 2 2 4 3 2 2 2 2 1
26 24 20 15 14 13 12 11 9 7 5 4 4 5 4 3 3 2 2 2 2 2 2 3 3 3 2 2 2 2 3 3 4 4 4 4 4 5 5 5 5 5 5 5 5 5 6 6 6 7 9 10 7 4 2 2 3 2 2 1 1 1 1
27 27 25 19 15 15 15 13 11 9 7 5 5 6 6 5 4 4 3 3 2 1 1 1 1 1 1 1 1 1 1 2 2 3 3 3 3 3 3 3 4 4 4 4 4 4 5 6 6 7 7 7 5 3 1 1 1 1 1 1 1 3 5
27 28 29 24 18 17 17 15 13 11 9 7 7 8 8 7 6 6 5 4 3 3 3 3 3 2 2 2 2 2 2 2 2 1 1 0 1 1 0 1 2 3 3 3 3 4 3 3 4 5 5 4 3 2 2 3 2 3 3 3 4 5 6
32 30 29 26 21 19 19 17 15 13 11 9 9 9 10 10 9 8 7 6 5 5 5 5 6 5 5 4 4 4 5 5 5 4 4 3 3 2 2 2 2 3 3 3 3 3 3 3 3 2 2 3 3 3 4 5 5 5 5 5 6 6 6
35 34 31 27 23 20 20 18 15 14 13 12 11 11 11 11 11 11 10 9 8 8 8 8 8 8 8 7 5 5 6 6 7 8 7 7 7 6 6 5 5 5 4 4 4 4 4 5 4 4 6 6 5 5 6 6 7 7 7 7 8 9 10
34 34 29 24 21 20 20 18 16 15 14 13 13 13 13 13 13 13 12 11 11 11 11 10 9 9 8 8 7 5 6 7 7 9 10 9 9 9 9 8 8 8 7 7 7 6 5 5 5 5 7 8 6 5 6 7 7 7 8 9 10 11 12
25 25 24 21 20 20 20 19 17 16 15 15 15 15 14 14 14 14 13 13 13 13 13 12 11 10 9 9 9 7 7 8 8 8 8 10 11 10 9 9 9 8 9 9 9 8 7 7 6 6 8 10 9 7 7 8 9 9 10 12 13 13 14
17 19 21 20 21 21 20 19 16 16 16 16 17 16 16 16 15 15 14 13 13 13 13 13 11 10 10 10 11 9 8 9 10 11 11 12 12 12 11 10 9 8 7 7 8 9 9 8 8 8 9 10 10 9 9 10 10 10 10 11 13 15 16
15 16 17 19 22 24 23 20 18 17 17 17 18 17 18 18 17 17 16 15 16 15 15 16 12 9 9 11 11 11 10 11 12 13 13 12 10 11 11 10 7 4 4 4 4 4 5 5 5 6 6 7 8 9 9 9 10 10 10 11 13 14 15
13 14 16 18 20 21 21 19 16 15 15 16 18 19 20 20 19 19 19 19 18 17 20 20 14 8 9 12 12 12 12 12 11 9 9 8 7 7 8 7 5 2 2 2 1 2 2 3 4 5 6 7 9 10 10 11 12 12 12 13 15 15 15
15 16 18 19 16 16 18 16 12 11 12 15 18 20 21 20 19 19 20 19 17 17 21 21 14 8 11 14 14 13 12 11 9 5 4 5 4 3 3 4 4 3 3 3 4 5 6 7 8 9 9 10 11 12 13 13 15 15 16 16 17 17 17
18 18 18 18 16 14 14 12 9 10 13 14 15 17 19 20 21 21 22 20 17 16 18 19 16 14 14 15 15 14 11 9 7 5 4 4 5 5 4 5 6 5 6 7 7 8 9 10 11 12 13 13 14 14 14 15 16 17 18 18 19 19 19
18 18 18 17 17 15 13 11 9 10 14 16 16 17 20 21 21 21 21 20 18 17 18 18 19 18 17 16 15 13 10 9 8 8 7 7 7 7 7 8 8 8 9 10 10 11 12 13 13 14 14 14 14 15 15 16 17 18 18 19 20 20 20
15 15 16 16 16 13 9 8 9 11 15 17 18 19 21 21 20 20 21 22 20 19 19 19 20 20 18 17 15 11 10 10 9 8 8 9 9 8 9 10 10 10 11 12 12 13 14 15 15 14 15 14 14 15 16 16 17 18 18 19 20 21 21
11 11 12 11 10 8 6 6 9 12 15 17 19 20 20 21 21 21 22 23 21 19 19 20 21 22 19 15 13 10 10 11 10 10 10 10 10 10 11 13 13 13 13 15 16 15 15 16 17 15 15 15 14 15 16 16 17 18 19 20 20 21 22
10 10 10 10 10 8 8 9 10 12 14 16 18 18 19 20 21 20 20 21 20 18 17 17 19 20 17 14 12 12 12 12 12 12 12 12 12 12 14 16 17 15 15 17 18 16 15 17 17 17 16 16 16 17 17 18 19 19 20 20 21 21 22
10 10 10 11 11 9 8 9 10 11 13 15 16 18 19 20 20 19 18 18 18 17 16 15 15 16 14 13 13 13 14 14 14 13 13 13 13 14 16 17 17 15 15 16 17 16 16 17 17 17 17 17 17 17 18 19 19 19 19 20 21 22 22
9 11 12 12 12 11 10 10 10 11 13 14 16 17 18 19 20 19 18 17 16 15 15 15 15 14 14 14 14 14 16 17 16 15 15 14 13 15 16 17 15 15 15 15 15 16 17 17 18 18 18 18 18 17 18 18 18 19 19 20 21 22 23
8 12 14 13 12 12 12 12 11 10 11 12 13 13 15 17 18 18 17 16 14 14 15 14 14 15 15 16 16 17 19 19 18 19 18 16 15 16 17 17 17 16 16 16 16 17 18 19 21 22 21 21 21 20 18 18 19 20 21 21 23 24 25
9 12 13 13 12 12 11 11 11 11 11 11 11 13 14 16 18 18 18 17 16 16 15 15 15 16 17 17 18 19 20 21 20 21 21 20 18 17 18 18 18 18 17 18 18 19 20 22 24 25 24 24 24 24 22 21 21 23 23 24 25 27 28
14 14 14 14 14 14 13 13 14 14 14 14 15 15 16 17 20 21 19 19 18 18 17 17 17 17 17 18 18 19 20 21 19 19 22 23 21 20 20 20 19 19 19 20 20 21 23 25 25 26 26 25 26 27 27 27 26 26 27 28 28 29 30
22 20 20 19 18 15 15 16 17 17 16 15 14 14 14 17 21 21 19 19 19 19 19 19 20 19 19 19 18 18 19 19 19 19 21 24 26 25 23 22 22 22 22 22 23 23 23 23 24 25 26 26 26 28 29 30 29 29 29 30 30 30 31
26 23 22 22 21 18 17 18 19 20 19 18 16 15 16 18 21 22 22 22 22 22 21 22 23 22 21 20 19 19 20 20 21 21 21 24 28 28 26 25 24 23 23 23 24 23 22 22 23 24 25 26 27 28 29 30 31 31 31 31 31 30 30
24 23 22 22 23 23 22 22 23 24 24 23 21 19 20 21 22 24 25 25 25 25 23 23 25 25 24 24 23 23 23 22 21 21 21 24 26 25 25 25 25 23 23 24 24 24 25 24 24 25 26 26 27 28 28 29 30 31 31 31 31 31 30
24 25 25 26 26 26 26 26 26 26 27 26 24 22 22 23 23 24 24 26 29 30 28 26 26 26 27 28 28 27 26 23 21 21 22 22 22 22 23 25 26 25 25 25 25 26 27 27 27 27 27 27 27 28 28 28 29 30 30 30 30 31 31

ECMWFFLT1_700_spd_063.txt.gz
Wind_Speed
13 13 12 12 11 10 9 8 7 8 7 7 6 6 5 4 3 3 3 3 2 2 3 4 5 6 7 8 9 9 9 7 7 8 7 6 5 5 5 7 8 7 6 5 5 5 5 5 7 8 9 8 7 7 7 6 6 5 6 6 6 5 5
14 13 13 12 12 11 10 9 8 8 7 7 6 5 4 3 3 3 3 3 2 2 2 3 3 4 5 6 7 8 9 8 6 6 6 6 6 5 4 5 5 5 5 5 5 5 5 5 5 7 8 7 7 7 7 7 6 5 6 7 6 6 6
13 14 13 13 13 11 10 8 7 7 7 6 6 5 4 3 3 3 3 3 3 2 2 2 2 2 2 3 4 6 8 8 7 5 5 5 5 4 3 3 3 3 3 2 3 4 4 4 5 7 8 7 6 6 7 7 7 6 6 6 5 5 5
13 14 13 12 12 11 9 8 7 7 6 6 5 5 5 3 3 2 3 3 3 3 3 3 2 2 2 2 3 4 6 7 6 6 6 5 4 4 4 4 4 4 3 2 3 4 4 4 5 6 8 8 7 6 6 6 7 7 7 6 5 4 4
15 14 13 12 11 9 8 7 7 7 6 6 6 6 5 4 3 3 3 3 4 4 5 4 4 4 4 4 4 4 5 5 5 6 7 6 5 5 5 5 5 6 5 4 5 6 5 5 6 6 7 7 7 7 7 7 7 7 7 7 6 5 5
16 15 13 11 10 8 6 6 6 6 7 7 6 6 5 4 4 3 3 4 4 5 6 6 6 6 5 5 5 5 5 5 5 5 5 5 5 5 4 5 5 6 7 6 6 6 5 5 5 5 6 6 6 6 8 8 8 8 8 7 6 5 5
18 14 11 10 9 8 6 5 6 6 7 7 5 5 5 4 4 4 4 4 5 6 7 7 7 7 7 6 5 5 5 5 5 6 6 5 5 5 5 6 6 6 6 7 7 7 6 6 5 4 4 5 6 6 8 11 9 7 7 6 6 5 4
18 14 12 11 10 9 8 6 5 6 6 6 5 5 4 4 4 4 5 5 6 7 8 8 8 8 8 7 6 6 6 6 6 6 6 6 6 5 5 6 6 5 5 5 6 7 7 6 5 4 3 4 6 7 9 10 9 7 6 5 5 5 5
19 16 14 13 13 11 9 7 5 5 6 6 5 5 4 4 5 5 5 6 7 8 8 8 9 9 9 8 8 8 7 7 7 7 7 7 7 6 6 6 6 6 5 5 5 6 7 6 4 3 2 2 5 6 7 8 7 6 6 5 5 5 5
18 16 15 15 15 13 10 8 5 5 6 6 6 5 4 4 5 5 5 6 7 8 8 9 9 9 9 9 9 8 8 8 8 9 9 9 8 8 7 7 7 7 7 7 8 9 9 8 6 4 2 2 6 6 4 7 8 7 7 6 6 6 6
18 16 17 17 16 13 10 8 5 4 5 6 6 5 5 5 5 6 6 6 6 7 8 8 9 9 9 9 9 9 9 9 9 8 9 9 9 9 8 8 8 8 9 10 11 11 11 10 9 6 3 0 2 2 2 5 8 9 8 7 7 6 6
19 18 19 19 16 13 10 7 5 4 5 6 6 6 6 5 5 5 5 5 5 5 6 6 7 7 7 8 8 8 8 9 9 8 8 9 9 10 9 9 9 9 10 12 12 11 11 11 11 9 6 5 3 2 2 3 4 6 7 7 6 6 6
19 19 20 20 17 14 11 8 6 4 5 5 5 5 6 6 5 5 4 4 4 4 5 5 5 6 6 6 6 6 6 7 7 7 8 8 8 10 10 10 10 9 10 11 12 12 12 11 11 11 9 7 4 3 2 2 2 3 5 6 6 7 6
20 20 22 21 18 15 12 10 8 6 5 5 5 5 5 5 5 4 4 4 4 4 4 4 5 4 5 5 5 5 5 5 6 5 6 6 7 8 8 9 10 10 10 9 9 11 12 12 12 11 9 7 5 4 3 3 2 2 2 2 3 4 5
21 21 22 21 19 16 13 11 10 8 6 5 5 5 5 5 5 4 4 4 4 3 3 3 3 2 2 2 2 4 4 4 4 4 5 6 7 7 6 7 8 8 9 8 7 7 9 9 8 7 7 6 4 3 2 2 3 4 3 4 4 3 2
23 23 23 22 20 17 14 12 11 10 8 6 6 6 6 6 6 6 5 4 3 2 1 1 1 1 1 2 3 3 3 4 4 5 5 5 5 6 6 7 7 8 8 8 7 6 7 7 6 7 8 7 6 5 5 5 4 5 5 5 5 5 5
25 25 24 23 22 19 16 15 13 11 10 9 8 7 7 8 8 7 6 5 5 4 4 4 4 4 4 4 3 3 3 4 5 5 6 6 6 6 6 7 7 9 10 10 9 7 6 6 6 7 7 6 7 6 6 5 6 6 5 4 5 5 6
25 25 25 25 25 23 22 22 20 15 12 11 10 9 9 9 9 8 7 8 8 8 7 7 8 9 8 5 4 4 4 4 4 5 6 7 8 9 9 8 8 8 8 9 9 9 7 7 7 7 6 5 5 4 4 5 6 6 6 6 7 8 8
22 24 27 29 29 27 27 28 24 19 15 13 13 12 12 12 11 11 11 11 10 9 9 10 11 11 10 7 5 5 6 5 5 6 6 6 7 9 10 11 9 9 8 8 10 9 8 8 8 8 7 6 5 4 5 5 5 6 8 9 9 10 10
21 23 27 32 32 30 31 31 23 18 15 14 15 14 15 15 15 15 15 13 10 9 9 9 10 9 8 8 9 8 7 6 7 7 8 8 9 9 10 11 10 10 9 10 11 10 10 10 10 9 8 7 6 6 7 6 6 7 9 9 10 10 11
18 19 21 26 28 29 30 25 18 14 13 15 17 18 18 19 19 18 16 13 10 9 9 8 8 8 10 11 11 9 6 6 8 9 9 10 11 11 11 12 12 11 10 9 9 10 11 12 11 10 8 7 7 7 7 7 8 8 9 10 10 11 12
11 10 11 15 17 16 17 17 15 13 14 15 18 19 20 19 19 18 16 14 12 11 10 10 10 11 12 12 11 9 6 6 8 9 9 9 10 11 11 12 13 12 10 10 9 9 10 11 10 9 8 8 8 8 8 9 10 10 11 12 12 13 14
5 5 6 8 9 10 13 15 15 15 16 16 16 17 17 17 18 18 17 15 13 12 12 12 12 13 13 12 12 12 10 8 8 9 8 8 8 10 11 12 13 12 11 11 10 10 10 10 10 9 9 10 10 11 11 12 13 13 14 14 14 15 16
7 7 8 9 9 10 13 14 11 11 15 16 15 15 15 14 16 18 17 15 15 14 13 13 14 14 13 12 14 14 13 11 10 10 8 7 7 9 10 11 12 12 12 12 12 11 11 11 11 11 11 12 12 12 13 14 15 15 15 16 16 16 17
9 9 10 9 9 10 11 11 8 7 11 13 12 13 14 13 14 15 16 16 15 15 15 16 16 15 13 13 15 16 15 13 12 11 10 9 9 10 10 11 11 11 11 11 12 12 12 12 13 13 13 14 14 14 14 15 15 15 15 16 16 16 17
9 9 9 8 9 10 11 10 9 9 9 10 11 13 14 14 13 14 15 16 16 16 16 17 17 17 16 16 17 17 16 15 14 14 12 12 12 13 12 11 10 10 10 11 12 13 14 14 14 14 14 14 14 14 14 14 14 14 15 15 16 17 17
9 9 7 7 8 11 11 11 10 10 10 10 13 16 16 16 16 16 17 17 17 18 18 19 19 19 19 18 18 18 17 17 16 14 13 13 14 14 13 12 12 12 12 13 14 15 16 16 15 15 14 14 14 14 14 14 15 15 15 16 16 17 19
7 8 6 5 7 8 9 10 10 11 11 11 14 16 17 17 18 18 18 17 18 19 19 20 20 19 19 19 19 19 19 18 17 15 14 15 16 15 14 13 13 14 14 14 15 16 17 16 16 15 15 15 15 15 15 16 16 17 17 18 19 19 20
8 8 7 6 7 8 8 9 10 11 12 12 13 14 15 17 18 18 17 17 17 18 19 19 19 18 18 19 19 18 18 18 16 15 15 16 16 16 15 14 15 17 17 16 17 17 17 17 16 15 15 16 16 16 16 17 17 18 18 19 20 21 22
9 9 9 8 9 9 10 11 10 11 12 12 13 14 16 17 18 17 17 16 15 16 16 16 16 17 17 17 18 18 18 16 15 15 16 16 16 16 16 16 17 18 18 18 18 18 18 18 17 16 16 15 16 17 18 18 19 20 20 20 21 22 22
9 9 10 11 10 9 10 10 10 10 11 11 13 16 17 17 17 16 15 14 14 14 13 13 14 14 15 16 18 18 17 15 15 15 16 17 16 16 16 16 17 17 17 18 18 18 19 19 19 18 17 17 17 19 20 21 21 21 21 21 22 23 23
9 8 9 9 9 8 8 9 9 10 11 12 14 16 17 18 18 16 14 13 13 13 12 12 12 13 15 17 19 19 17 16 16 17 17 17 17 17 17 17 17 17 18 18 19 19 19 19 19 19 19 19 20 21 21 22 22 21 21 21 22 23 24
11 12 10 8 8 8 9 10 11 12 13 14 15 16 17 18 17 15 14 14 14 13 14 14 14 15 16 17 19 19 19 18 19 19 19 19 19 19 18 18 17 18 18 19 19 20 20 21 22 22 23 23 22 22 21 20 21 21 21 22 23 24 25
14 14 14 12 12 11 11 12 13 13 14 15 16 17 18 19 17 16 16 16 16 15 16 16 16 16 17 18 20 21 21 21 21 21 21 21 21 21 20 19 19 20 20 20 21 21 22 22 23 24 24 24 23 23 22 21 21 21 22 23 24 25 26
18 17 17 17 18 17 16 15 14 13 14 14 15 16 18 19 18 17 17 17 16 16 16 16 17 17 19 20 22 22 23 23 23 24 23 23 22 22 21 21 21 22 22 22 22 21 21 22 22 22 23 23 23 24 24 24 23 23 23 24 25 26 28
24 23 22 21 20 19 18 18 17 16 16 16 16 17 19 19 19 19 18 17 16 15 15 16 17 18 19 22 23 24 24 25 25 25 24 24 23 23 23 23 24 24 23 23 22 22 22 22 22 22 22 23 23 24 24 25 25 25 25 26 28 30 31
23 24 24 24 23 20 19 20 19 19 19 19 19 20 21 21 19 20 21 20 18 16 16 17 18 19 20 22 24 25 26 26 27 26 26 25 25 24 25 25 24 24 23 22 22 22 22 22 22 22 23 23 23 24 24 25 25 27 28 30 32 33 33

ECMWFFLT1_700_spd_069.txt.gz
Wind_Speed
13 12 10 9 8 8 7 7 6 5 5 4 3 2 2 1 1 1 1 2 3 3 4 5 7 8 10 12 13 14 14 13 11 11 10 10 11 12 11 9 8 8 9 10 10 9 9 9 8 7 8 9 10 10 10 10 10 8 6 6 6 5 5
13 12 10 9 8 9 9 8 7 6 5 4 2 2 1 1 1 1 1 1 1 2 3 3 5 6 7 9 11 12 12 12 11 10 9 8 9 10 10 8 7 7 8 9 10 9 9 9 8 6 6 8 9 9 10 10 9 8 7 7 6 5 4
12 11 10 10 10 11 10 9 8 7 5 4 3 3 2 2 2 1 1 1 1 3 4 4 5 5 6 7 8 9 9 9 9 8 8 7 8 9 8 7 7 7 7 8 8 8 8 8 8 6 7 7 8 8 9 9 9 9 8 7 6 5 4
11 11 11 11 11 11 11 9 8 7 5 4 4 4 3 3 2 2 1 2 3 4 5 5 6 6 7 7 8 9 9 9 9 8 7 7 9 9 8 7 7 7 7 7 8 7 7 8 7 7 7 8 8 9 8 8 9 10 9 8 6 5 4
12 12 12 12 12 11 10 9 8 6 6 5 4 4 4 3 3 2 1 2 2 3 4 5 5 6 6 6 7 8 9 10 10 9 8 7 8 9 8 7 7 7 7 7 7 7 7 8 9 8 6 7 9 8 8 8 9 10 10 9 8 6 5
14 14 13 13 13 12 11 10 8 7 6 5 4 3 3 3 2 2 2 1 1 2 3 4 5 5 5 5 5 6 7 7 8 9 9 9 9 9 9 8 7 7 7 6 5 6 6 6 8 7 4 5 8 7 8 9 9 9 9 9 9 8 7
16 15 14 15 14 12 11 10 9 7 6 5 4 4 3 2 2 2 2 2 2 2 2 3 4 4 4 4 4 5 5 6 6 7 8 9 9 9 9 9 8 8 7 6 6 6 6 6 8 7 4 4 7 8 8 9 10 9 9 8 8 8 8
18 17 17 16 15 13 12 10 9 7 6 5 5 4 3 3 3 3 3 3 2 2 2 2 2 3 4 4 5 5 5 6 6 5 6 7 7 8 7 7 8 8 8 7 7 7 8 8 8 8 7 5 6 8 9 10 10 9 9 8 8 7 7
20 19 19 18 16 14 12 11 10 8 7 6 5 5 4 4 4 4 3 3 3 2 1 1 1 2 3 4 5 5 5 5 5 5 5 6 6 6 7 7 7 8 8 7 7 8 8 8 8 9 10 9 8 8 8 9 9 9 8 7 6 6 5
21 21 20 19 17 15 13 12 10 9 7 7 6 5 5 5 4 4 4 3 3 2 1 1 1 2 3 4 4 4 4 3 3 4 5 6 6 6 6 7 7 7 7 7 7 7 7 7 9 9 9 9 8 8 8 7 7 7 6 5 5 5 4
20 21 22 21 18 15 13 12 11 9 8 7 7 6 6 5 5 5 4 4 3 3 2 3 3 3 3 3 2 2 1 1 2 2 3 4 4 5 5 5 5 5 5 5 5 5 6 7 8 8 8 7 7 6 6 6 6 6 6 5 5 5 5
21 22 22 20 17 15 14 13 12 11 9 8 8 7 7 7 7 6 6 5 5 4 4 4 4 4 4 3 2 1 1 1 2 2 2 2 3 4 4 4 4 4 4 4 4 5 6 7 8 9 8 8 6 6 7 6 5 5 4 4 4 5 5
22 23 22 19 17 16 16 15 13 11 10 10 9 9 9 9 9 8 8 7 7 6 6 6 6 5 4 3 2 2 1 2 2 2 2 3 3 3 3 4 4 4 3 3 3 4 6 7 9 10 10 8 8 8 9 8 6 4 2 2 4 4 5
23 23 22 19 18 18 18 16 14 12 11 10 10 10 10 10 10 10 10 9 9 8 7 7 6 5 4 4 3 2 2 2 2 3 3 3 4 3 3 2 3 4 4 4 4 5 6 7 8 10 10 9 9 9 9 8 7 5 3 2 4 4 4
24 23 21 19 20 20 19 17 15 13 12 12 11 11 11 11 11 11 11 10 9 9 8 7 6 5 4 4 3 2 1 1 2 2 3 4 4 4 3 2 2 2 3 4 4 4 6 7 8 8 9 9 9 9 8 7 7 5 3 3 5 5 5
24 23 20 19 20 20 19 18 16 15 15 14 14 14 13 13 12 12 12 11 10 9 8 7 6 5 5 4 4 3 2 2 2 3 3 3 4 3 3 3 3 3 3 2 2 2 4 5 6 7 8 8 8 9 9 8 7 6 5 6 7 8 8
26 25 21 20 21 21 20 20 18 17 18 18 17 16 15 14 14 13 13 12 11 10 8 7 6 5 5 4 4 4 4 4 4 5 5 6 6 5 5 4 4 4 4 3 3 3 3 4 5 5 6 7 7 7 8 7 7 7 7 8 9 10 11
27 26 25 23 23 22 22 22 21 21 21 20 20 19 17 17 16 15 14 13 13 11 9 8 6 5 4 4 5 5 5 6 6 7 8 8 9 8 8 7 7 7 6 6 5 5 5 6 6 6 6 6 6 6 7 7 7 8 9 10 11 11 12
27 27 27 26 24 23 22 24 24 24 23 22 22 21 20 20 20 18 17 16 15 14 11 9 7 6 5 5 6 6 7 7 7 8 9 10 11 11 11 11 10 10 9 9 8 8 8 8 8 9 8 8 9 9 9 9 9 9 10 11 11 12 13
26 26 28 28 27 25 25 27 27 26 25 25 24 24 24 24 23 21 19 18 17 16 14 11 9 9 8 8 9 9 9 9 8 8 10 11 11 11 12 13 13 13 13 13 12 11 11 11 11 11 11 12 11 11 11 11 11 12 13 13 13 14 14
25 26 29 29 27 27 27 29 28 27 27 28 27 27 26 26 25 23 21 21 20 19 17 14 11 11 11 11 11 11 11 10 9 9 10 11 11 12 12 13 14 14 15 15 15 15 15 14 14 14 14 14 14 13 13 13 13 15 16 17 16 16 15
23 24 24 23 23 24 25 28 29 28 28 29 30 30 29 28 26 21 20 23 24 22 19 16 13 13 13 12 12 12 11 11 12 12 12 12 13 13 14 15 15 16 17 17 18 18 17 17 17 17 16 16 15 14 14 14 15 16 17 18 17 16 16
19 19 19 18 18 20 21 26 30 29 27 29 32 33 31 30 29 25 23 25 26 24 21 18 15 13 13 12 13 13 14 14 14 14 14 14 14 14 15 17 18 19 20 20 20 20 19 19 19 18 17 16 15 15 15 16 16 17 17 17 17 17 18
14 16 18 19 18 18 20 23 28 30 28 28 31 32 32 34 36 33 29 27 26 24 21 18 16 14 14 15 16 17 17 16 15 15 15 16 16 16 17 18 19 21 22 22 22 21 21 20 20 20 18 16 15 15 16 16 17 17 17 18 19 20 20
11 12 14 15 15 18 19 21 26 29 28 28 29 31 33 36 37 33 28 27 27 24 21 19 18 18 19 19 19 19 20 18 16 16 17 17 17 18 18 19 20 20 21 22 23 22 22 22 22 21 20 18 16 16 16 17 18 19 19 20 21 22 22
11 11 11 12 13 15 16 18 22 24 24 26 28 30 33 33 30 25 25 26 25 22 21 21 22 21 22 22 21 21 22 21 18 16 17 19 20 20 20 20 20 20 20 20 22 23 24 24 23 22 20 18 17 17 17 18 19 20 21 22 22 23 23
12 12 12 13 14 14 15 17 19 20 21 23 24 26 26 25 22 22 23 24 23 22 22 23 24 23 23 24 24 24 24 24 21 18 18 19 21 22 21 20 19 19 18 18 20 22 24 24 23 21 19 18 17 18 19 20 21 21 22 23 23 23 24
14 14 14 14 14 15 16 17 18 19 21 22 21 21 22 23 23 24 24 24 23 23 23 25 26 25 26 26 26 26 26 26 24 22 20 20 20 21 21 20 19 18 17 18 19 21 23 23 22 20 19 18 19 20 21 22 22 23 23 23 24 24 24
14 15 15 15 15 16 17 18 19 20 22 23 23 23 26 27 26 26 25 24 24 24 25 27 28 28 28 28 28 29 29 27 25 24 23 21 21 21 22 21 20 20 18 18 19 21 22 22 22 21 20 20 21 22 23 24 24 24 24 24 24 24 24
13 15 15 16 16 17 18 19 20 20 21 23 23 23 25 26 24 24 25 25 26 27 28 28 28 28 29 29 29 30 29 28 27 26 25 24 22 22 23 22 21 22 22 21 21 22 23 23 23 22 22 23 24 24 25 25 25 25 25 25 24 24 24
13 14 15 16 17 17 18 19 19 20 21 22 23 23 23 22 23 25 26 27 30 31 30 27 26 27 29 29 29 29 29 29 28 28 26 25 24 23 23 23 23 23 24 24 24 25 25 25 25 25 24 25 25 25 25 25 25 25 25 25 25 24 25
12 14 15 17 18 19 19 19 20 21 22 23 24 24 23 23 25 26 26 27 29 30 28 26 25 27 30 30 30 30 30 29 28 27 26 26 25 23 23 24 24 25 25 26 26 26 26 26 26 26 26 26 26 25 25 25 25 25 25 25 25 26 26
11 13 14 16 18 19 20 21 21 22 24 24 25 25 26 26 26 26 25 25 25 26 26 26 26 28 29 31 30 30 29 28 27 26 26 26 25 23 23 23 25 26 27 27 27 27 27 28 27 27 27 26 26 25 25 26 26 26 26 26 26 28 29
11 12 13 14 15 17 19 21 22 23 24 25 26 26 27 27 26 26 25 25 25 26 27 28 29 29 29 29 29 28 27 26 26 25 25 25 24 24 23 24 25 27 27 27 28 29 28 28 28 28 27 27 26 26 26 27 27 27 27 28 29 30 30
14 14 15 16 16 16 17 19 21 23 24 25 26 28 28 28 28 27 27 27 28 28 28 29 30 30 30 29 28 27 26 25 26 26 25 25 24 24 24 25 26 28 29 29 29 29 29 29 28 28 28 27 27 27 27 27 27 28 28 29 29 29 29
18 18 19 19 19 19 19 20 22 23 23 24 25 27 29 29 29 29 29 29 30 30 31 31 32 31 31 30 29 28 26 26 26 26 25 24 24 24 25 26 28 29 30 30 30 30 29 29 28 28 27 27 27 26 26 27 27 27 28 28 28 27 26
22 23 23 23 24 25 25 25 26 26 26 26 26 27 28 29 30 30 31 32 32 32 32 32 32 31 31 31 30 29 28 28 27 26 25 24 25 25 26 27 29 30 30 30 30 30 29 28 28 27 27 27 27 26 26 26 26 26 26 25 25 24 23

ECMWFFLT1_700_spd_072.txt.gz
Wind_Speed
13 11 9 7 6 6 7 6 5 5 5 5 4 3 3 2 1 1 1 2 3 4 4 5 5 6 7 9 11 12 11 10 9 8 8 7 7 8 8 7 7 7 8 9 9 9 8 8 7 7 6 6 6 7 8 8 7 6 5 5 5 4 4
13 11 9 8 8 8 7 7 6 6 5 5 4 3 2 2 1 1 1 1 2 3 3 3 3 3 4 5 7 9 10 11 10 10 9 8 7 8 8 8 8 8 8 8 8 9 9 9 8 7 6 4 5 6 7 7 7 5 4 4 4 4 4
12 9 9 9 9 9 8 8 7 6 6 5 3 2 1 0 1 1 1 1 1 2 3 3 2 2 2 3 4 6 7 9 10 10 10 9 8 8 9 9 9 9 9 8 9 9 8 8 7 7 5 4 5 5 6 5 5 5 5 4 4 4 4
11 8 9 9 10 10 9 8 8 6 5 3 2 1 0 1 1 2 2 2 2 2 2 3 2 2 2 2 2 3 5 6 7 7 7 7 7 8 10 10 9 8 9 9 9 9 8 7 7 6 5 4 4 4 5 5 4 5 5 5 5 5 4
13 10 10 10 10 11 10 9 8 6 4 2 1 0 1 2 1 1 2 2 2 2 2 3 2 2 2 2 2 3 4 5 6 6 6 6 7 9 10 10 8 7 6 6 6 7 7 7 7 7 6 5 4 4 5 5 5 5 5 5 5 5 5
16 12 11 11 12 12 11 10 8 6 4 3 2 2 2 3 3 2 2 2 2 2 2 2 2 2 2 2 2 3 4 5 6 7 7 7 8 9 10 9 8 7 6 5 4 4 5 6 6 6 6 5 4 4 5 6 6 5 5 5 4 4 4
17 14 13 13 14 14 13 11 8 7 5 4 3 3 3 4 4 3 2 2 2 1 1 1 2 2 2 2 2 2 3 4 5 7 8 9 9 9 9 8 8 7 7 6 5 5 6 6 6 6 6 5 4 4 5 5 5 5 5 4 4 4 4
17 15 15 16 16 15 12 10 8 7 5 3 3 3 4 5 5 3 3 3 2 1 1 1 1 2 1 1 2 2 2 3 4 5 7 9 10 9 9 8 8 8 7 7 7 7 8 7 7 8 8 7 6 6 6 5 4 4 4 4 4 4 4
17 16 17 18 16 14 12 10 8 7 4 3 3 4 5 5 5 4 4 3 3 1 0 1 1 1 1 1 2 2 2 3 3 4 6 8 9 9 9 8 8 7 7 7 7 7 8 8 8 8 8 7 6 6 6 5 4 3 4 4 5 5 4
18 18 18 17 15 14 12 11 10 7 5 4 4 5 5 5 5 5 5 4 3 2 1 1 1 1 1 1 1 2 2 3 3 3 5 6 7 7 8 7 7 7 7 7 8 8 8 9 9 8 8 7 7 6 6 6 5 4 4 4 4 3 3
18 18 19 18 16 15 13 12 10 7 6 6 5 6 6 6 6 6 6 5 4 4 2 1 1 1 1 2 2 3 3 3 3 3 4 4 5 6 6 7 6 6 6 7 7 8 8 9 9 8 8 8 8 6 5 4 4 4 3 3 3 3 3
18 19 20 19 18 16 15 13 11 9 8 8 8 8 8 7 7 6 6 6 5 4 2 1 1 2 2 2 2 3 4 4 4 4 3 3 4 5 5 5 6 6 6 7 7 7 8 8 8 8 8 7 7 5 3 4 4 4 3 3 3 3 3
18 20 21 21 19 18 17 15 12 11 10 10 11 10 9 8 7 7 7 6 6 4 3 2 2 2 3 2 2 2 3 4 4 4 4 3 2 2 2 3 4 5 6 7 7 7 7 8 8 7 7 6 4 2 3 5 6 5 5 4 3 2 3
18 20 22 22 21 20 18 17 14 13 13 12 12 11 10 9 8 8 7 7 6 5 3 3 3 3 3 3 2 2 3 4 4 5 5 5 3 2 1 1 2 3 4 5 6 7 7 7 7 6 5 4 4 3 5 6 6 6 5 5 4 3 3
19 21 22 22 22 21 20 18 16 15 14 13 12 11 11 10 9 8 8 8 7 5 5 4 4 4 4 4 4 3 2 3 3 3 4 4 4 3 3 2 1 2 3 4 5 7 7 7 7 6 6 5 5 5 6 7 6 5 4 4 4 4 3
21 22 22 22 23 23 21 19 17 16 14 13 13 12 12 11 9 8 9 9 8 7 6 6 5 5 5 4 4 3 2 1 1 1 1 2 2 2 2 2 2 2 2 3 5 7 8 9 9 9 8 8 7 7 7 7 6 5 4 3 3 3 3
23 23 23 24 24 23 21 20 19 17 15 14 14 13 13 12 11 10 11 11 9 8 7 6 6 5 5 3 2 1 1 1 1 2 2 1 1 1 1 1 1 1 2 2 3 4 7 8 10 10 10 10 9 9 8 7 7 6 5 5 6 5 5
25 25 25 25 24 23 21 20 20 18 16 16 15 15 15 14 13 12 13 12 11 9 8 8 7 6 5 4 2 1 1 2 3 3 4 4 4 4 4 4 3 3 3 3 3 3 4 5 7 8 9 10 10 10 9 8 7 7 6 7 8 7 8
26 26 27 27 25 22 21 21 21 20 18 17 17 17 17 16 15 14 14 14 13 11 10 10 9 8 7 5 3 3 3 3 4 4 5 5 6 6 7 7 6 6 6 6 6 5 5 5 6 7 8 9 10 10 10 9 9 9 8 9 9 9 9
27 28 29 29 26 23 22 22 22 21 21 20 20 20 20 18 17 16 16 15 14 13 12 12 12 10 9 7 5 5 5 5 5 6 6 6 6 7 7 8 8 8 8 8 8 8 8 8 9 9 9 9 10 10 11 11 11 10 10 10 11 11 11
28 29 32 32 31 28 26 25 24 23 22 22 22 22 22 21 20 19 18 18 16 15 15 14 14 13 12 9 7 7 7 7 8 8 8 8 8 8 8 8 9 10 10 11 11 11 11 11 12 12 12 12 12 12 12 12 12 11 11 12 12 12 13
30 30 31 33 33 31 29 28 27 25 23 22 23 24 24 23 22 22 21 21 20 18 17 16 16 17 15 13 11 10 9 9 9 10 10 10 10 11 11 11 11 12 12 13 13 13 14 14 14 14 14 14 14 13 14 14 13 13 13 14 14 15 15
30 33 32 33 33 32 31 30 29 27 25 23 23 24 25 25 25 25 24 23 22 21 18 16 18 19 19 17 14 12 11 10 10 11 11 11 12 13 13 13 14 14 15 15 16 16 17 17 17 17 17 17 16 16 16 16 16 16 16 16 16 16 16
21 28 28 26 26 27 29 29 29 28 26 25 25 24 25 26 27 26 25 24 23 23 21 21 23 23 24 22 18 14 12 11 12 12 13 13 14 14 15 16 16 16 17 17 18 19 19 19 19 19 19 19 18 18 18 18 18 18 18 18 18 17 16
12 17 17 16 16 19 22 25 27 26 25 27 27 25 24 25 27 28 25 24 25 25 26 27 27 24 25 26 22 17 15 14 14 15 15 16 15 15 15 17 18 18 18 19 19 20 20 21 21 21 21 20 19 19 18 19 19 19 19 19 18 18 18
11 13 14 14 15 16 18 20 21 22 23 26 29 28 26 24 26 27 26 25 26 28 29 29 26 22 25 28 25 21 19 18 18 18 18 18 17 16 16 17 19 20 20 20 21 21 21 21 21 21 21 21 20 20 19 19 20 19 19 18 18 18 19
10 12 12 11 12 14 17 17 18 19 20 23 27 29 28 26 25 25 26 26 29 31 31 29 24 22 25 29 28 25 22 21 21 21 20 20 19 18 18 19 20 22 23 22 22 21 21 21 21 21 23 24 23 21 19 19 19 19 18 18 19 20 21
8 10 9 9 9 12 14 15 17 18 19 21 23 25 27 27 27 26 27 29 31 32 30 26 23 23 26 30 30 27 25 24 23 23 23 22 21 21 21 21 22 23 24 23 22 21 21 20 21 22 24 25 24 21 19 19 19 19 19 19 20 21 23
7 8 9 9 10 12 13 13 15 16 17 18 20 22 24 26 26 26 27 29 30 29 26 24 23 25 27 29 30 28 27 27 26 25 24 23 23 23 23 24 24 25 25 24 23 22 21 20 20 22 23 23 21 19 19 20 20 20 20 21 22 23 23
8 8 9 9 10 12 13 14 15 17 18 19 20 21 22 23 24 23 24 25 26 25 24 24 24 26 28 29 29 29 29 29 28 27 26 25 25 25 25 26 26 26 27 26 25 24 23 21 20 21 21 21 20 20 21 21 21 21 21 22 22 23 23
8 9 9 9 10 12 13 15 16 18 19 20 21 21 22 23 24 23 22 23 25 26 25 26 27 28 29 29 29 30 31 30 29 28 28 27 26 27 27 28 28 28 28 27 26 26 25 24 23 22 22 22 21 22 22 22 22 22 22 23 23 23 23
9 9 9 10 11 12 13 15 16 18 19 20 21 21 22 23 24 24 24 24 27 28 28 28 29 29 29 30 31 31 30 30 29 29 29 29 29 29 29 29 29 30 29 27 26 26 26 26 25 24 23 23 23 23 23 23 23 23 23 24 24 24 24
9 9 9 10 11 12 13 15 16 17 19 20 21 21 22 23 24 24 24 25 26 29 30 30 30 30 30 32 33 33 33 33 32 30 31 32 31 31 32 31 31 31 29 28 27 26 26 26 25 25 25 25 25 25 25 25 25 25 25 25 25 25 25
10 10 10 11 12 13 14 15 16 18 19 20 21 22 22 23 25 26 26 26 27 28 30 30 30 31 31 31 32 32 34 35 33 31 33 35 34 35 34 33 32 31 29 28 27 27 26 26 26 26 26 27 27 27 26 26 26 26 26 26 26 25 25
12 12 12 12 13 13 14 15 16 18 18 19 20 21 22 23 23 23 24 26 27 29 30 31 31 32 31 30 30 31 34 34 32 32 35 37 37 36 34 32 31 30 29 28 27 27 27 27 27 28 28 28 28 28 28 28 27 27 27 26 26 26 26
15 16 16 16 16 16 16 16 17 18 19 19 20 21 22 22 22 21 21 24 25 27 28 30 31 32 32 31 31 32 34 35 34 34 35 36 34 31 30 30 30 29 28 28 28 28 28 28 28 29 29 29 29 29 29 29 28 27 27 27 27 27 27
19 20 20 20 20 19 19 20 20 20 21 22 23 24 25 25 25 25 24 25 26 27 28 29 29 30 31 31 32 33 34 35 35 35 35 35 33 28 25 25 26 27 27 28 28 28 29 29 30 30 30 30 30 29 29 28 28 28 28 28 28 28 28

ECMWFFLT1_700_spd_075.txt.gz
Wind_Speed
15 15 14 12 10 10 10 10 10 9 9 8 8 7 6 5 5 4 4 4 4 4 4 5 7 8 9 10 12 12 11 11 12 11 10 9 9 9 9 9 8 7 6 6 6 5 4 3 3 3 2 2 2 3 4 4 3 3 3 3 3 2 2
17 16 14 12 11 11 11 11 10 10 10 9 8 7 5 4 4 3 3 3 2 2 2 3 4 6 7 9 11 13 14 13 13 12 11 11 11 10 10 9 8 7 7 7 6 6 5 4 4 2 2 3 3 4 4 3 2 3 3 3 3 3 2
17 15 14 13 13 13 12 12 12 11 10 9 7 6 5 4 3 3 2 2 2 2 1 1 1 3 5 7 10 12 14 14 14 13 12 12 11 10 9 9 9 8 8 8 7 7 6 5 4 2 3 3 4 4 4 3 2 2 3 3 2 2 2
17 15 15 14 14 14 14 13 13 12 10 8 6 4 4 3 3 2 2 2 3 3 3 2 1 2 3 4 7 9 10 12 13 13 12 12 12 10 9 9 9 9 8 8 8 7 7 6 5 3 4 4 4 4 4 3 3 3 3 2 2 2 1
19 17 16 16 16 15 15 14 13 11 9 6 5 3 3 3 3 3 3 3 3 3 3 3 2 3 3 3 4 5 6 8 9 10 10 11 11 10 9 9 9 7 6 6 6 6 6 6 5 4 5 5 5 5 4 4 3 3 3 2 2 1 1
19 16 16 17 16 16 15 14 12 10 8 5 3 2 3 4 4 3 3 3 4 4 4 4 3 3 3 3 2 2 3 5 7 8 9 9 9 9 9 9 8 7 5 4 4 4 5 5 5 5 5 6 6 6 5 4 4 3 3 3 2 2 2
19 14 14 14 14 14 14 13 11 8 6 5 3 2 3 4 4 3 3 3 4 4 4 4 4 4 3 3 2 1 2 3 5 7 8 9 9 9 9 9 8 7 6 5 5 5 5 6 6 6 7 7 7 7 6 5 4 4 3 3 3 3 3
21 17 14 14 13 14 13 12 10 8 6 5 3 2 3 4 4 3 3 3 3 4 4 4 5 4 4 3 2 1 1 2 3 5 7 8 8 8 9 8 7 7 7 7 7 6 6 6 6 7 7 8 8 8 7 5 5 4 4 3 3 4 3
22 19 16 15 16 15 13 12 10 8 7 5 3 2 2 2 2 2 2 2 3 3 4 4 5 5 4 3 3 2 2 2 3 3 3 5 7 7 8 8 7 7 8 8 8 7 6 6 6 6 6 7 7 6 5 5 5 5 5 4 4 4 4
22 19 18 18 17 16 14 12 11 9 8 5 3 2 1 1 2 2 3 3 2 3 3 4 5 5 5 4 4 3 3 3 3 3 3 3 5 6 7 7 7 7 8 9 8 7 7 6 6 5 6 6 6 5 4 5 6 6 6 5 5 5 5
19 19 19 19 18 17 14 12 11 11 8 6 4 3 2 1 2 3 3 3 3 2 2 3 5 6 6 6 5 4 3 3 3 3 4 4 4 5 5 6 7 8 9 9 9 8 8 7 6 6 6 6 5 4 4 5 6 7 6 6 6 5 4
16 18 20 20 19 17 15 13 13 11 9 6 5 3 3 3 2 3 4 3 3 2 1 2 4 6 6 7 7 6 5 4 3 3 4 4 4 4 5 5 6 8 9 9 10 9 8 7 7 8 8 6 5 4 4 6 7 6 6 6 5 5 5
15 17 19 20 19 17 15 14 13 11 9 7 5 4 4 4 3 3 3 3 3 2 0 2 4 6 7 7 7 7 7 6 5 5 5 5 5 4 4 5 6 7 8 9 9 8 7 7 8 8 7 5 4 4 5 7 8 7 6 6 5 5 5
14 17 19 20 20 18 16 15 14 12 10 8 6 5 5 4 4 3 3 3 3 3 1 3 5 6 7 7 7 8 8 8 7 7 7 7 6 6 5 6 6 7 7 8 8 7 7 7 7 6 4 3 3 5 6 7 8 8 8 7 6 5 5
14 16 19 21 21 19 18 16 15 13 11 9 7 6 6 5 5 5 4 3 4 4 2 3 4 6 6 7 7 8 8 8 7 7 7 7 7 7 7 7 7 7 7 7 7 8 8 7 6 5 4 4 4 6 7 7 8 8 8 8 6 6 5
15 15 18 20 21 21 20 18 17 15 12 10 9 8 7 7 7 6 5 4 6 6 4 3 4 5 6 6 7 7 7 8 7 6 6 6 6 7 7 7 7 6 6 7 7 8 8 7 6 6 6 5 6 7 8 8 8 8 8 7 6 5 5
18 17 17 19 21 22 21 19 18 16 14 12 11 10 9 9 8 8 7 7 7 6 4 4 5 6 6 6 6 6 7 7 7 6 6 5 5 5 5 5 6 6 7 7 7 8 8 8 8 8 8 7 8 8 9 9 8 7 6 6 5 4 4
22 20 18 18 20 22 21 21 19 17 15 14 13 12 11 10 10 9 9 9 8 6 6 6 7 6 6 6 6 6 6 7 7 6 5 5 4 4 4 4 4 5 6 7 8 8 9 9 10 10 10 9 9 9 9 9 8 7 6 6 5 4 4
26 24 21 19 19 21 21 21 20 19 17 16 15 14 13 12 11 11 10 9 9 8 8 8 8 7 7 7 7 6 6 7 6 6 6 5 5 4 4 4 3 4 4 5 6 7 8 9 10 11 11 11 11 11 10 10 10 9 8 8 7 6 6
28 27 24 22 21 20 21 22 21 20 19 18 17 15 14 13 12 12 11 11 10 10 10 10 9 9 8 8 8 8 7 6 6 6 6 5 5 5 5 5 5 5 5 5 6 6 7 8 9 10 11 12 12 12 12 12 12 11 10 10 10 9 8
28 27 26 25 23 21 22 22 22 21 20 19 18 16 14 14 14 14 13 12 12 11 11 11 11 11 10 10 10 9 8 8 7 7 7 7 6 6 6 6 7 7 8 8 8 8 8 8 9 10 11 12 13 13 13 13 12 12 12 12 11 10 10
24 23 25 26 25 24 23 23 22 21 21 20 19 17 15 15 15 16 16 15 14 13 13 14 13 12 11 11 11 11 11 10 9 9 9 9 8 8 7 8 8 9 10 10 10 10 10 10 11 11 12 13 14 14 14 14 14 14 13 12 11 11 12
24 23 24 26 27 26 24 24 23 23 22 21 19 17 16 16 17 18 18 17 16 15 15 16 15 14 13 11 10 12 14 15 13 11 10 10 9 9 8 9 11 12 12 12 12 12 12 12 12 13 14 15 15 15 15 15 15 15 14 13 12 13 14
25 25 26 27 30 30 27 24 24 23 23 22 20 18 17 17 18 19 20 20 18 17 18 18 17 16 16 13 11 12 16 18 18 15 12 11 11 11 10 11 12 13 15 15 14 13 13 13 14 14 14 15 16 17 17 17 16 16 16 15 15 16 17
17 21 25 27 29 29 29 27 25 24 25 23 21 19 19 19 20 21 22 22 21 20 21 21 20 20 19 17 15 16 18 20 21 19 16 14 13 13 12 12 12 13 15 16 16 16 15 16 16 16 16 16 17 18 18 18 18 17 17 18 18 19 20
10 14 21 26 26 24 26 29 30 29 29 27 24 22 21 21 22 22 23 23 23 22 22 23 23 24 24 22 20 20 21 21 23 23 22 19 16 15 14 14 14 14 15 16 17 17 17 18 19 19 19 18 18 18 18 19 19 19 19 19 20 21 21
8 9 13 19 21 20 20 25 30 31 30 28 26 24 24 24 24 24 24 23 24 24 25 25 25 26 27 26 24 25 25 24 24 26 25 23 20 18 17 17 17 17 17 17 18 19 19 19 20 21 21 21 20 19 20 20 20 20 20 20 20 21 21
7 8 9 12 15 15 15 17 22 24 24 23 23 24 25 25 26 27 26 25 25 26 26 27 27 29 30 29 28 29 28 25 25 27 28 27 25 23 21 20 20 20 20 20 20 20 21 21 21 21 22 22 22 21 21 22 22 22 21 21 21 21 20
6 7 8 8 9 11 12 14 16 18 20 20 21 22 23 24 26 28 29 28 27 27 28 29 29 31 32 32 31 31 29 27 26 27 29 29 28 27 25 24 23 23 22 22 22 22 22 22 22 22 22 23 23 23 23 23 24 24 24 23 22 21 21
6 7 7 7 6 7 8 10 12 14 15 17 18 19 20 21 23 26 28 29 29 29 29 30 32 33 33 33 32 30 28 28 27 28 29 31 31 30 28 27 26 26 25 25 25 25 24 24 24 24 24 24 23 23 23 23 23 24 26 25 22 22 22
7 7 7 7 8 8 8 9 11 12 13 14 15 16 18 19 20 22 24 26 26 27 28 30 31 32 32 32 31 29 27 27 28 28 29 30 31 31 30 29 28 28 28 28 28 27 27 26 26 26 25 25 23 23 23 23 22 23 23 23 22 23 23
8 8 8 8 9 9 10 11 12 13 13 14 15 16 17 19 20 21 22 23 24 25 26 26 27 27 28 29 28 27 27 27 28 28 29 30 31 31 31 30 30 29 30 31 31 30 30 28 27 26 26 26 25 24 23 23 23 23 22 21 22 23 23
10 10 10 9 9 10 10 11 12 12 13 13 14 14 16 18 19 20 21 23 24 25 25 25 24 25 26 26 27 27 27 28 29 29 30 32 33 33 32 31 30 31 32 32 33 33 32 30 29 28 28 27 26 25 24 24 24 23 23 22 23 24 24
11 12 12 12 12 11 11 12 12 12 13 13 14 15 16 17 18 19 20 22 23 23 24 25 24 24 25 25 26 27 28 28 29 30 32 34 35 35 34 32 32 33 34 35 36 36 35 34 32 31 29 29 27 26 25 24 24 24 24 24 25 26 26
12 13 13 13 13 13 13 14 14 14 15 15 16 16 17 18 18 19 20 21 21 20 21 23 24 24 24 24 25 26 27 28 29 30 31 33 33 33 33 33 34 35 36 38 38 37 36 35 34 32 31 30 28 26 25 24 24 24 25 25 26 26 26
13 14 14 14 14 14 15 15 16 17 17 18 18 18 18 18 18 19 20 21 21 20 20 22 23 24 25 25 26 26 26 26 27 28 29 30 31 31 32 34 35 36 36 36 36 35 34 31 29 29 30 30 28 27 26 25 24 24 25 26 27 27 27
14 14 14 14 15 15 16 16 17 18 19 20 20 20 20 20 21 21 22 23 24 23 23 23 24 25 27 28 28 28 28 28 28 28 28 29 30 31 33 35 36 36 35 34 33 32 31 28 26 27 29 29 28 27 26 25 25 25 27 27 27 27 27

ECMWFFLT1_700_spd_078.txt.gz
Wind_Speed
14 14 14 14 13 12 12 12 11 10 9 9 9 9 9 8 8 9 9 9 9 9 9 10 10 12 12 13 14 14 15 15 15 14 13 12 12 12 12 12 11 10 9 8 8 7 6 5 5 3 3 4 4 5 5 5 5 5 5 5 5 4 4
18 17 16 15 14 12 13 12 11 11 11 11 11 10 9 8 8 8 8 8 8 8 7 7 8 10 12 13 14 14 15 15 15 15 13 12 13 13 12 12 11 11 10 9 9 8 8 7 5 5 5 5 5 6 6 6 6 6 6 5 5 5 5
18 18 18 17 15 14 14 13 12 13 13 12 11 11 10 8 8 7 7 7 7 7 7 7 7 8 10 12 13 14 15 15 15 15 14 13 13 12 12 12 11 11 11 11 10 9 8 8 7 6 6 6 6 6 6 5 6 7 6 6 5 5 5
18 18 18 18 17 15 14 14 13 13 13 13 12 11 10 8 8 7 6 6 6 6 7 7 7 6 8 9 10 12 13 14 15 15 15 15 14 13 12 11 11 12 12 12 10 8 8 8 7 7 7 7 7 7 6 6 7 7 7 7 6 6 6
18 18 19 19 17 16 15 15 14 13 13 13 12 10 10 8 8 7 7 6 6 6 6 6 5 5 6 7 7 9 10 12 14 14 14 15 14 13 12 11 12 11 11 10 9 8 8 8 7 7 7 7 7 7 7 7 7 8 8 7 7 6 6
20 20 19 18 16 15 16 17 16 15 13 12 11 10 10 9 8 8 7 7 7 7 6 6 6 6 6 5 5 6 7 8 10 12 12 12 12 11 11 11 11 9 9 9 8 8 8 7 7 7 7 7 7 8 8 8 8 8 8 8 7 7 7
22 21 19 17 15 15 17 18 17 15 13 12 11 11 11 10 9 8 8 7 7 7 6 6 6 6 6 6 6 6 7 7 8 10 10 9 9 9 10 10 10 9 10 10 8 8 8 8 7 7 7 7 8 8 8 8 8 8 8 8 8 8 7
22 20 19 19 18 17 18 18 17 14 13 12 11 11 11 10 9 8 8 7 7 7 6 6 6 6 7 8 7 7 8 8 8 8 8 8 8 8 9 9 9 10 10 10 9 9 8 8 8 7 8 8 9 9 9 8 8 8 8 8 8 8 7
22 20 19 19 18 18 18 16 14 13 13 12 11 10 10 10 9 8 8 7 7 6 6 6 6 6 6 7 7 7 7 7 6 6 6 7 8 8 8 9 10 10 10 10 10 9 8 7 7 6 7 8 8 8 9 8 8 9 9 8 8 8 7
23 20 18 19 19 18 16 15 16 14 13 12 10 9 9 9 9 8 8 7 6 6 5 5 5 5 6 6 7 7 7 7 6 6 6 7 8 9 9 10 10 10 10 11 10 9 7 6 6 7 8 7 7 6 7 8 8 9 9 9 8 8 8
24 20 20 22 22 20 19 18 17 14 12 11 9 9 8 9 9 8 8 7 6 5 5 5 5 5 6 6 6 7 7 7 7 8 7 7 9 10 10 11 11 11 11 11 10 8 7 6 6 7 8 8 7 7 7 8 9 8 9 9 9 9 9
25 22 22 24 23 22 21 19 16 14 12 10 8 8 7 8 8 8 8 7 6 6 5 6 6 6 6 6 6 6 7 8 8 8 8 8 8 8 9 9 9 10 11 10 9 8 7 7 8 8 7 7 8 8 9 10 9 8 9 10 9 9 9
24 24 24 24 24 24 23 19 16 14 12 10 9 8 6 6 6 7 7 7 7 5 5 6 6 6 7 7 7 7 7 7 8 8 8 9 8 7 7 7 8 9 9 8 9 8 8 8 8 8 8 8 9 10 11 12 11 10 10 10 9 9 10
21 23 23 23 23 23 22 19 17 15 13 11 10 9 7 6 5 5 6 6 6 5 4 5 6 7 7 7 7 7 7 7 7 8 8 8 8 8 8 8 8 7 7 7 7 7 7 8 8 8 8 8 9 11 11 11 11 12 11 10 10 10 10
20 21 21 21 23 23 22 20 18 16 14 13 11 9 7 6 4 4 4 5 5 5 3 4 5 6 6 7 7 7 7 8 8 8 8 8 8 9 9 9 8 7 8 8 8 7 7 8 7 6 7 8 8 10 10 10 11 12 11 10 11 11 11
19 19 19 20 22 23 22 20 19 18 16 14 12 10 8 6 4 4 4 4 4 3 3 3 5 6 6 6 6 7 7 8 8 8 8 8 8 8 8 8 8 8 8 9 8 7 7 7 7 6 6 7 8 9 10 10 10 11 10 10 10 11 10
19 18 18 18 21 22 21 20 19 19 17 15 13 11 9 7 5 5 4 3 2 1 2 3 5 6 6 6 6 7 7 7 7 7 7 8 8 8 7 7 7 7 7 8 8 7 7 7 7 6 6 6 7 8 10 10 10 10 10 9 9 10 10
19 17 17 18 20 22 22 21 20 20 18 16 14 12 10 8 7 6 4 3 2 2 2 3 5 7 7 7 7 7 7 7 7 7 7 7 7 7 7 7 7 6 7 7 7 7 7 7 7 6 6 6 6 8 9 10 10 10 10 9 9 10 10
21 20 19 19 20 22 23 22 21 20 18 16 14 13 11 10 8 7 6 4 5 5 4 4 5 7 8 8 9 9 9 9 8 8 8 8 8 9 9 8 8 7 7 8 8 8 8 8 8 8 8 8 8 9 10 11 11 11 11 11 11 11 11
22 21 21 21 20 22 23 23 22 21 19 17 15 14 13 12 10 9 8 6 7 7 6 6 7 8 8 9 10 10 10 10 9 9 9 9 10 10 11 11 11 10 10 10 10 10 10 10 10 10 10 11 11 11 11 12 12 13 12 12 12 12 12
22 22 22 22 21 21 22 23 22 21 20 19 17 16 15 14 13 11 10 9 9 9 9 9 9 9 9 10 11 10 10 9 8 8 8 9 10 10 11 12 13 13 12 13 13 12 12 12 12 12 12 13 13 13 13 13 13 14 14 14 14 14 14
24 24 24 25 24 22 22 22 22 22 22 21 20 18 18 17 15 13 12 11 11 11 11 11 10 11 11 12 12 11 11 10 9 8 8 9 10 10 10 11 12 12 12 12 13 13 13 14 13 13 14 14 15 15 15 15 15 15 16 16 16 15 16
25 25 25 27 28 27 25 23 24 24 23 23 22 21 20 19 17 15 14 14 14 13 13 13 13 13 14 14 14 14 13 12 11 10 10 11 11 11 11 11 11 11 12 12 13 13 14 14 14 14 15 15 15 16 16 17 17 17 18 18 17 17 18
24 26 26 26 28 30 29 27 25 24 23 23 23 23 22 20 18 17 16 16 16 15 15 16 15 16 16 16 16 15 15 14 13 13 13 13 13 13 13 13 12 12 12 13 14 15 15 15 15 15 15 15 15 16 17 18 19 19 20 20 18 18 19
23 23 24 24 26 28 30 29 27 24 23 25 25 24 23 21 19 17 17 17 17 17 18 18 17 17 18 18 18 17 17 17 16 16 16 15 15 15 16 16 15 14 14 13 14 14 15 16 16 16 16 16 16 17 18 19 21 22 22 22 21 21 20
20 19 21 23 24 26 29 30 29 26 24 25 25 25 23 21 19 18 18 18 19 19 19 19 19 19 19 20 19 19 19 19 18 17 17 18 19 18 19 19 19 18 16 15 14 14 15 16 17 18 18 18 18 18 18 19 21 23 25 25 24 23 22
15 15 17 19 21 24 26 27 28 29 28 26 25 24 23 20 18 18 19 19 20 21 21 21 21 21 21 21 21 22 22 21 21 20 20 21 22 21 22 22 22 22 20 19 18 17 17 17 18 19 20 20 20 19 19 20 21 23 25 27 27 26 25
12 11 11 13 17 21 22 22 24 28 32 32 29 27 24 21 19 19 20 21 22 23 23 23 23 23 23 23 23 24 24 24 25 25 24 24 24 22 23 25 26 25 25 23 21 21 20 20 21 21 22 22 22 21 21 21 21 23 25 27 28 28 28
11 10 8 7 9 14 17 17 18 21 28 33 34 31 29 26 25 24 24 24 24 24 24 25 25 25 25 25 25 27 27 27 27 27 27 27 27 26 25 27 28 28 28 27 26 24 24 24 24 24 24 24 24 23 22 22 22 23 24 26 28 28 29
10 10 9 7 8 10 12 13 13 14 17 21 26 28 28 27 26 26 26 26 25 25 25 26 26 26 27 27 28 29 30 30 30 29 28 28 29 29 28 27 28 29 30 31 30 29 29 28 28 27 27 26 26 25 24 24 24 25 25 26 27 29 30
10 10 11 10 10 10 11 11 11 12 13 13 15 18 20 20 20 22 23 23 24 25 26 27 27 28 29 29 30 30 32 32 33 32 31 30 30 30 28 27 27 28 30 31 32 32 33 33 32 30 29 29 28 28 27 26 27 28 28 26 26 28 30
11 10 11 11 11 11 10 10 10 11 12 12 13 14 15 16 16 18 19 19 20 22 24 24 26 28 28 29 30 31 32 33 33 33 32 31 31 29 28 27 27 28 30 31 32 32 33 34 34 33 32 31 31 30 29 29 29 29 28 26 26 27 27
11 11 11 11 11 10 10 10 10 10 10 11 12 13 14 14 16 17 18 18 19 21 22 23 25 26 27 28 29 29 29 28 28 29 30 30 30 29 29 29 28 30 32 33 33 34 35 34 33 33 33 33 33 33 31 31 31 29 28 27 27 26 26
10 11 10 10 10 11 11 10 10 10 10 11 12 12 13 14 15 16 17 18 20 21 20 21 22 24 26 27 27 27 26 25 25 25 26 28 29 30 30 31 31 31 33 33 33 34 35 35 35 35 34 33 33 34 32 32 33 31 29 28 28 28 28
10 10 10 10 10 10 10 10 10 9 10 10 11 12 12 13 15 16 16 18 19 19 18 18 19 20 22 24 25 26 27 27 26 25 25 25 27 28 29 30 30 30 31 31 30 30 32 33 35 36 35 32 32 33 34 35 35 33 30 29 30 31 30
10 10 10 10 10 10 10 10 10 10 10 10 11 12 13 14 15 16 17 18 19 19 19 19 19 18 19 20 22 24 25 26 27 27 26 26 26 27 28 29 30 30 30 30 29 28 29 30 32 34 35 33 32 32 34 36 35 33 31 31 32 32 31
11 11 11 11 12 12 12 12 12 12 12 13 13 14 14 15 16 17 18 20 21 21 22 22 22 22 22 22 23 24 25 26 27 28 29 29 28 28 29 30 31 31 32 32 31 30 30 30 31 32 33 33 32 33 35 35 35 34 32 31 32 32 31

ECMWFFLT1_700_spd_084.txt.gz
Wind_Speed
11 12 11 10 9 10 11 10 11 11 12 12 12 12 10 9 9 8 8 9 8 7 7 7 7 6 6 5 6 6 6 7 6 6 6 6 6 5 5 5 5 5 4 4 3 2 2 3 3 4 4 5 6 6 7 6 6 7 7 6 7 8 7
13 13 12 11 9 10 11 12 12 11 11 12 12 13 12 10 9 9 9 9 9 9 8 8 7 6 6 6 6 5 5 6 6 5 6 6 6 5 5 5 5 5 5 5 5 3 3 3 3 3 4 5 5 5 6 6 6 7 7 7 8 8 7
13 12 11 10 10 11 12 12 12 12 12 13 13 13 13 12 11 10 10 10 10 9 10 10 8 7 7 7 6 5 5 5 6 5 6 6 5 5 6 5 5 5 5 5 5 4 4 4 4 5 5 5 6 7 6 6 7 7 8 10 9 6 6
13 12 11 11 11 11 11 11 12 12 12 13 13 11 10 11 12 11 10 11 11 10 10 9 8 8 8 7 6 5 5 6 6 5 5 6 6 6 5 5 5 6 6 6 4 3 4 5 5 6 5 5 6 7 7 7 8 9 10 11 10 6 6
14 13 13 12 12 11 11 12 12 11 11 12 12 11 11 11 12 12 12 12 12 11 11 10 9 8 7 7 6 5 5 6 7 6 5 5 6 6 5 5 6 6 7 6 4 4 6 6 6 6 5 5 6 6 7 8 9 10 11 10 8 7 8
14 14 14 14 14 12 13 13 12 12 12 12 13 13 13 13 13 13 13 12 12 12 11 10 10 8 7 7 6 5 5 5 6 5 5 4 5 6 5 6 6 6 7 7 6 6 6 7 7 7 5 5 6 5 6 8 9 9 10 9 9 8 8
15 15 15 16 15 14 14 14 14 14 14 15 15 14 14 13 13 13 13 12 12 11 11 10 9 9 9 8 6 6 6 6 5 5 5 5 5 6 6 6 6 7 7 7 6 6 6 7 7 6 5 6 7 6 6 8 10 10 10 8 7 8 8
15 15 16 16 15 15 15 15 16 17 17 16 15 14 13 13 13 12 12 12 11 11 11 10 10 10 9 8 7 7 7 7 6 6 6 5 5 5 6 6 6 6 6 6 5 4 5 6 6 5 6 7 7 8 9 10 11 11 10 8 5 6 8
14 15 15 14 14 16 17 17 17 17 18 17 15 14 13 12 12 11 11 10 10 9 9 9 9 9 9 9 8 9 8 8 8 7 6 5 5 5 5 5 5 5 5 5 4 4 5 6 7 7 7 7 8 9 9 10 11 11 10 8 5 7 8
13 14 14 13 14 16 19 19 18 18 19 17 15 14 12 12 12 10 10 9 8 8 7 7 8 7 8 9 8 9 9 9 9 8 7 7 5 5 5 5 6 4 4 4 4 4 6 6 7 8 7 7 8 9 9 10 11 11 9 7 6 8 8
13 13 14 14 15 18 21 21 20 20 19 16 14 12 11 11 11 10 10 9 8 8 7 6 7 6 7 8 7 7 9 9 8 8 8 7 6 6 5 6 6 5 4 5 4 5 6 6 6 6 7 8 7 7 9 10 9 9 9 9 7 7 9
12 12 14 15 17 20 22 22 22 20 17 14 12 11 11 10 10 10 10 9 8 7 6 6 6 5 5 5 5 5 7 7 7 8 8 7 6 6 6 6 7 6 6 6 5 5 5 5 6 6 7 8 7 7 8 9 8 8 9 9 7 8 10
11 11 12 14 17 20 22 22 21 19 16 14 12 12 11 11 11 11 10 9 8 7 6 6 5 3 3 3 3 3 4 5 5 6 8 8 6 5 5 7 7 7 7 6 6 6 5 5 6 7 7 8 7 7 8 9 8 8 9 9 7 8 11
9 11 12 14 18 21 22 21 21 19 16 14 13 13 13 12 12 12 10 9 8 7 6 5 4 4 3 2 2 2 3 3 3 4 6 7 6 6 6 7 7 7 7 6 6 7 7 7 8 9 8 7 7 7 8 10 9 9 10 9 8 9 11
10 11 13 17 21 23 22 22 21 19 17 15 14 15 15 14 14 12 10 9 8 7 7 6 5 4 4 3 3 2 2 2 1 2 4 5 5 5 6 7 7 6 6 6 7 7 7 7 7 9 8 8 8 8 10 12 12 12 12 11 12 12 13
12 14 17 22 24 24 23 22 19 18 18 16 15 16 16 16 14 12 10 9 8 7 7 6 6 5 5 5 4 3 3 2 2 2 3 3 4 4 5 6 6 6 6 7 8 7 7 7 5 7 9 8 7 8 10 12 13 14 14 14 16 14 12
14 17 21 24 24 23 23 21 19 19 19 16 16 18 17 16 14 11 10 10 9 7 7 6 6 6 6 5 5 4 3 2 2 2 2 2 2 3 4 6 6 6 6 7 8 7 7 6 5 6 9 7 5 7 9 11 13 13 12 12 14 12 11
16 19 22 24 24 24 25 23 20 20 19 17 17 18 19 16 14 12 11 11 9 7 6 6 7 7 6 5 5 4 3 3 2 2 1 1 2 2 4 5 5 7 7 7 7 7 7 7 7 8 9 7 5 9 11 12 13 11 9 9 10 11 10
17 20 22 25 25 25 26 25 23 22 20 19 19 20 20 17 14 13 13 12 10 8 6 6 7 7 6 6 5 4 3 3 2 1 1 1 1 2 4 4 4 6 7 7 8 8 9 10 10 10 9 7 6 8 10 12 12 11 10 9 10 11 9
17 20 22 25 25 24 25 25 25 23 22 21 21 21 20 18 16 15 14 13 11 8 7 7 7 8 7 6 5 5 4 3 2 2 2 2 2 3 4 4 4 5 7 8 9 9 10 11 12 11 10 9 8 7 7 9 12 11 10 8 9 11 10
17 19 21 24 24 23 23 25 26 25 23 23 23 22 21 19 18 17 15 14 12 10 8 8 8 8 8 7 6 5 4 4 3 4 4 3 4 5 5 5 6 6 7 7 9 10 11 12 12 12 11 11 11 10 7 8 10 11 10 9 10 11 12
19 20 20 22 24 22 20 22 24 25 24 24 23 23 22 20 20 19 17 16 14 12 10 8 8 8 7 7 7 6 5 5 4 4 4 5 6 6 7 7 7 7 7 9 9 10 11 12 13 13 13 13 13 13 12 10 10 11 12 12 13 14 15
20 21 20 21 22 21 20 21 22 23 23 23 23 23 22 21 21 20 19 17 16 14 11 9 9 8 8 7 6 6 6 6 6 6 6 7 8 8 9 9 8 8 9 11 11 12 12 13 13 14 14 14 15 15 15 14 13 14 14 15 15 16 17
22 22 21 21 22 22 21 21 20 20 22 22 23 23 23 22 22 22 20 20 18 15 12 11 10 9 9 8 7 7 7 7 7 8 8 9 9 10 11 11 10 10 11 13 14 14 13 13 14 15 15 16 16 17 17 17 17 17 18 18 18 18 18
23 23 23 22 22 22 21 21 21 20 21 22 23 23 23 23 23 23 23 23 20 16 14 13 11 10 10 10 9 10 9 9 8 9 11 11 11 11 11 11 11 11 10 12 16 17 16 16 15 15 16 16 17 18 18 19 20 20 21 21 21 21 21
23 23 24 24 24 23 22 21 20 20 20 20 21 23 24 24 25 24 25 25 22 17 15 15 13 12 12 12 12 12 12 11 11 11 13 13 12 13 11 10 11 10 9 10 13 16 17 19 19 17 16 16 17 18 19 20 21 22 22 23 23 23 23
21 22 23 24 24 25 26 25 22 20 20 20 20 21 23 24 25 26 27 26 23 19 18 18 17 16 15 14 14 14 15 14 13 13 14 14 14 15 13 11 12 13 12 12 13 14 16 19 21 20 18 16 15 17 18 19 20 21 22 23 24 25 25
20 22 22 22 23 24 25 24 24 24 23 22 21 22 23 24 24 25 26 25 23 21 21 20 19 18 16 16 16 16 16 16 16 17 17 17 16 17 18 17 16 16 16 15 15 16 17 18 20 22 20 17 16 17 19 20 20 21 22 23 24 25 26
17 20 21 21 20 20 18 18 21 22 23 23 23 24 25 27 27 28 27 25 22 21 22 21 20 19 17 17 17 17 17 18 18 19 19 19 20 21 21 20 19 19 18 17 18 19 18 17 18 21 22 19 18 19 21 21 22 22 24 26 27 27 28
13 16 16 15 14 14 14 14 14 14 15 18 19 20 22 25 28 30 30 28 24 24 24 23 22 21 20 18 18 18 19 20 20 20 20 21 22 23 23 23 23 22 21 21 22 22 21 20 19 20 22 22 21 22 23 22 23 24 24 26 28 30 30
10 12 12 11 10 10 11 11 11 11 12 14 13 13 15 18 23 28 30 30 29 29 28 27 25 24 23 21 21 21 22 22 21 21 22 23 24 25 25 26 26 24 23 23 23 23 22 22 22 22 24 24 23 24 24 23 24 25 25 26 28 30 31
10 10 10 9 8 8 8 9 10 12 13 12 10 10 10 12 16 22 25 28 30 30 29 29 28 27 25 23 23 23 23 22 20 20 22 24 26 26 26 27 27 25 24 24 23 21 20 20 21 23 24 24 24 25 26 26 27 27 27 28 29 30 32
12 11 10 10 9 8 9 9 8 9 10 9 9 9 8 9 11 14 17 20 25 28 29 30 30 27 25 24 23 22 20 18 18 19 21 23 24 26 26 26 25 23 22 21 20 20 20 19 20 22 23 24 25 27 28 28 29 29 30 30 31 31 33
9 10 11 11 11 10 10 9 7 7 8 6 5 5 6 6 7 8 9 10 13 18 21 23 24 22 19 19 19 18 16 16 17 19 21 22 24 25 24 23 20 19 20 20 20 21 21 22 23 24 25 26 27 28 29 30 30 31 31 31 31 31 32
9 9 9 9 9 9 10 10 9 10 9 7 5 5 5 4 4 5 5 4 4 5 7 10 12 12 11 10 12 13 14 15 17 19 20 21 23 23 23 22 21 21 22 23 23 24 24 25 26 26 27 29 29 30 31 32 32 32 33 32 32 31 31
12 12 11 10 9 8 9 9 9 10 10 8 7 6 6 5 5 5 5 4 3 4 5 7 9 10 9 8 9 12 14 15 17 18 19 21 22 23 24 25 25 26 26 26 27 28 29 29 30 31 31 32 33 33 34 35 35 35 35 36 35 34 34
11 12 12 11 11 10 10 10 10 10 9 8 8 8 7 6 5 6 6 7 7 7 8 10 12 12 11 11 13 14 16 17 19 20 22 23 24 25 27 28 28 29 29 30 30 31 32 32 33 34 34 34 35 36 36 37 38 38 38 38 38 38 37

ECMWFFLT1_700_spd_087.txt.gz
Wind_Speed
8 11 12 12 12 13 13 13 14 16 15 16 17 16 15 15 14 15 15 14 14 14 14 15 15 14 13 12 13 12 10 9 8 8 8 8 8 8 8 9 9 9 8 8 9 8 7 7 7 8 8 7 7 7 7 7 7 6 6 5 4 4 3
9 12 13 12 13 14 15 14 15 15 16 17 16 15 14 14 13 14 14 14 14 13 13 14 14 14 14 13 12 10 9 9 9 9 9 8 8 8 8 9 9 9 8 8 8 8 8 7 7 8 8 7 8 7 7 7 6 5 4 4 4 4 4
10 13 13 13 13 14 15 15 15 15 16 17 16 15 15 13 13 12 13 15 16 14 12 12 12 12 11 11 10 9 8 8 8 9 9 8 8 8 9 9 9 9 8 8 8 7 8 8 8 8 7 8 8 8 8 8 7 5 4 4 4 4 4
10 12 12 12 13 14 16 15 15 16 16 16 16 15 14 12 12 13 15 17 16 13 11 11 12 11 10 9 9 9 9 8 8 8 8 8 8 8 9 9 9 9 9 8 8 7 7 7 7 7 8 8 8 9 9 9 8 6 6 6 6 6 6
11 12 12 12 12 14 15 15 15 16 15 15 15 14 14 13 13 14 16 15 13 12 12 12 12 11 10 9 9 8 8 8 9 9 8 9 9 9 9 9 9 9 9 9 8 8 8 7 6 6 7 7 7 8 9 10 9 6 6 8 9 8 8
12 13 13 13 13 13 14 14 14 15 14 15 16 15 15 16 16 16 17 15 12 12 12 11 10 10 10 9 9 8 8 8 9 9 9 9 9 9 10 9 8 8 9 9 9 8 7 7 7 7 7 7 7 8 9 10 9 7 7 8 8 8 8
13 14 14 14 14 14 14 14 14 14 14 15 17 18 17 17 18 18 17 14 12 12 11 10 10 10 10 9 8 9 9 8 8 9 9 9 10 10 10 9 8 8 8 9 8 7 6 7 7 8 8 8 9 10 10 9 8 7 7 7 7 8 8
13 14 14 15 15 15 16 16 15 15 16 16 18 19 18 18 18 17 14 12 12 12 12 12 12 11 9 9 9 9 9 8 7 8 8 8 9 10 9 9 8 8 8 8 7 6 6 6 7 8 8 8 9 10 10 9 8 6 5 6 8 8 8
13 14 14 15 16 17 17 17 16 16 17 17 18 19 18 17 16 14 13 13 12 12 12 12 12 11 9 9 9 8 8 7 7 7 7 8 8 8 8 8 8 8 8 8 7 7 7 7 7 8 8 8 9 9 10 9 6 4 4 6 8 9 9
11 13 14 15 15 17 17 17 16 16 17 18 18 17 16 15 14 13 13 13 12 12 12 11 10 10 10 10 9 8 8 8 7 7 7 7 6 6 7 8 8 8 7 7 7 6 7 7 8 8 7 8 9 9 9 7 5 3 5 7 8 9 9
11 13 15 16 16 17 18 18 17 17 17 18 17 16 16 15 13 13 13 12 11 11 10 10 9 10 10 10 9 9 8 8 7 7 7 7 6 6 7 7 7 7 6 6 6 5 6 7 7 7 7 8 9 9 8 6 3 3 5 7 8 8 8
14 14 16 17 17 18 19 18 17 18 18 17 16 16 16 14 13 13 12 11 10 9 9 9 8 9 9 9 9 8 8 8 8 7 7 6 6 6 6 6 6 6 6 6 5 5 6 6 6 7 7 7 8 8 7 4 3 2 3 4 6 7 8
15 16 17 18 18 19 20 19 19 19 18 16 16 16 15 14 13 13 12 10 9 9 9 7 7 8 8 8 7 6 7 9 8 8 8 7 6 6 5 5 6 6 6 6 6 6 6 6 7 7 6 6 6 7 6 4 3 2 2 3 5 7 8
16 16 17 19 20 20 21 21 21 21 18 16 17 16 14 14 13 12 12 10 10 9 8 7 7 7 7 7 7 6 6 7 7 8 9 8 7 6 5 6 6 6 6 6 6 7 6 6 6 6 5 6 6 6 6 5 6 4 2 4 6 8 9
17 17 18 19 20 22 23 23 23 22 19 17 17 16 15 15 14 12 11 10 10 9 8 7 7 7 7 7 7 6 6 6 6 7 8 8 7 5 5 5 6 6 6 6 6 6 6 5 5 5 5 6 8 8 7 6 8 7 5 6 8 10 10
17 17 18 19 20 22 23 24 25 23 19 18 19 17 16 16 14 13 11 10 9 9 8 8 8 7 7 7 6 6 7 7 7 7 7 6 6 5 4 5 6 5 5 5 5 5 5 6 7 8 8 6 7 10 10 8 10 9 8 9 9 8 10
17 16 18 19 20 22 24 25 26 23 20 20 19 17 16 16 15 14 12 11 10 10 9 8 8 8 7 7 7 7 7 7 7 7 6 6 6 5 4 5 5 4 4 4 5 5 6 7 8 9 7 5 6 9 10 10 10 8 7 6 6 6 7
16 17 19 20 22 25 27 26 24 23 22 22 19 16 17 17 16 15 14 13 12 11 10 9 8 8 8 8 8 8 7 7 7 7 7 6 6 5 5 4 4 4 4 5 6 7 7 8 9 8 6 5 6 7 8 8 7 5 4 6 6 5 6
17 17 20 23 24 26 27 25 23 23 22 21 18 17 18 18 17 17 15 15 14 12 11 10 9 9 9 9 9 9 8 8 7 7 7 7 7 6 5 5 4 5 5 6 8 8 9 9 9 8 7 7 7 7 8 7 6 4 5 7 8 6 5
18 18 21 24 25 26 26 25 22 21 20 19 17 17 19 19 18 17 16 16 15 12 11 11 10 10 10 10 10 10 9 9 8 8 8 8 8 8 7 7 6 6 6 7 8 9 9 10 9 8 8 8 7 7 7 7 7 7 6 7 8 8 5
20 21 21 24 25 25 26 25 22 20 19 17 15 15 17 18 17 17 17 17 15 12 11 11 11 11 11 11 11 11 10 9 9 9 8 9 9 8 8 8 7 7 6 7 7 8 9 10 9 9 9 9 9 8 6 7 8 9 9 9 9 10 8
24 23 22 22 22 23 24 23 21 20 18 16 14 14 16 18 18 18 18 17 15 13 11 11 11 12 12 12 12 11 10 10 9 9 9 9 8 7 7 6 5 5 5 6 7 7 9 11 11 11 10 10 10 9 8 8 10 11 12 12 12 13 12
23 23 23 21 19 20 21 21 20 19 17 16 15 15 18 19 19 19 19 18 17 14 13 12 12 12 12 12 11 10 9 9 8 7 6 5 5 5 5 5 5 5 5 6 8 9 10 12 13 13 13 13 12 11 10 10 12 13 15 15 16 16 16
22 22 23 22 21 20 20 19 19 19 19 18 17 17 19 20 21 21 20 19 18 16 15 14 13 13 13 12 11 10 9 8 7 5 4 4 4 5 6 6 6 6 7 7 9 10 12 12 13 14 14 14 14 14 14 13 13 14 15 17 18 19 19
22 22 22 22 23 23 22 19 17 17 18 19 19 19 21 23 24 23 21 21 20 18 16 15 15 14 14 14 12 11 9 8 6 5 4 4 5 5 6 6 7 7 7 7 7 9 11 12 13 14 15 15 16 17 17 17 16 16 16 17 18 19 20
22 22 23 22 22 23 22 19 17 17 17 18 19 21 22 23 24 24 23 22 22 21 19 18 17 16 15 15 14 13 12 10 8 7 6 6 6 6 6 6 7 7 6 6 6 7 8 10 11 13 15 17 18 19 19 19 20 19 18 18 19 20 21
22 22 23 24 23 22 21 20 19 18 17 17 19 20 21 22 23 23 23 23 23 23 22 20 19 18 17 16 15 14 13 13 11 10 10 10 10 9 8 8 8 8 9 9 9 8 8 9 10 12 14 17 20 21 20 20 21 21 20 19 19 19 20
25 24 24 25 24 23 23 22 21 19 18 19 19 18 18 18 20 21 22 23 24 24 23 21 20 19 18 17 16 16 16 15 14 13 13 13 13 12 11 11 11 12 13 12 11 11 11 11 12 13 14 16 20 22 22 21 22 22 21 20 20 20 21
21 23 24 25 25 25 25 24 22 22 21 20 20 20 19 17 17 18 18 19 21 21 21 21 21 21 20 19 18 17 16 14 14 14 15 16 16 15 15 14 14 15 16 15 15 14 14 15 16 16 16 17 18 19 21 21 22 22 23 22 22 22 22
18 18 20 21 21 23 24 24 24 26 26 25 24 24 23 22 21 21 20 19 19 19 19 20 21 22 22 21 20 19 17 15 14 15 16 17 18 18 18 17 16 16 17 17 17 17 16 17 17 17 17 18 18 18 20 21 22 23 24 25 25 24 25
14 17 18 18 18 19 18 17 18 20 22 23 23 23 22 21 20 20 22 23 23 23 22 22 22 22 23 24 23 21 19 18 18 19 20 20 20 20 20 19 18 18 18 18 18 18 18 19 18 17 16 16 17 17 19 21 23 24 25 26 26 26 26
7 11 14 14 15 15 14 13 11 12 13 14 15 16 15 14 14 14 16 19 22 24 25 25 25 24 24 24 23 22 21 22 22 22 22 22 20 19 19 19 19 19 19 19 19 19 19 19 18 17 17 16 16 16 18 20 22 23 25 25 27 28 28
12 12 13 13 12 12 13 13 13 12 12 11 10 10 10 10 11 12 13 15 18 21 23 24 26 26 25 24 24 25 25 25 23 22 22 22 19 17 17 18 18 19 19 19 19 18 18 18 17 17 18 19 19 19 20 21 22 24 25 26 28 29 29
14 15 14 14 14 13 12 12 13 13 11 11 11 10 10 11 12 12 12 13 15 18 20 22 24 26 26 26 27 28 29 27 24 21 20 19 17 17 17 18 19 19 20 20 20 20 20 21 21 21 21 21 22 23 24 25 26 27 28 29 29 30 30
10 11 12 13 13 14 14 14 15 15 13 12 12 11 12 13 13 12 12 13 14 16 18 20 22 23 24 24 25 25 25 24 21 19 17 17 17 18 19 19 20 20 20 21 22 23 24 24 24 25 25 25 26 27 28 29 30 31 32 32 32 33 33
8 9 11 11 10 12 13 12 14 16 16 15 13 12 11 12 11 11 12 12 11 10 10 11 12 13 15 16 16 16 15 14 14 15 15 16 17 18 19 19 20 21 22 23 24 25 26 27 27 27 28 28 29 30 31 32 33 33 34 35 35 35 36
9 9 10 10 9 10 10 9 10 14 15 13 12 11 11 10 10 11 11 9 7 6 5 5 6 7 9 10 11 11 10 11 12 14 16 17 18 19 21 22 23 24 25 26 27 27 28 29 29 29 29 29 30 31 31 32 33 34 35 35 36 36 37